TimeCST,TemperatureF,Dew PointF,Humidity,Sea Level PressureIn,VisibilityMPH,Wind Direction,Wind SpeedMPH,Gust SpeedMPH,PrecipitationIn,Events,Conditions,WindDirDegrees,DateUTC
12:54 AM,37.9,28.9,70,29.99,10.0,NW,4.6,-,N/A,,Clear,310,2012-11-30 06:54:00
1:54 AM,41.0,28.9,62,30.00,10.0,WNW,8.1,-,N/A,,Clear,290,2012-11-30 07:54:00
2:54 AM,39.9,28.0,63,30.01,10.0,NNW,8.1,-,N/A,,Clear,330,2012-11-30 08:54:00
3:54 AM,36.0,27.0,70,30.04,10.0,Calm,Calm,-,N/A,,Clear,0,2012-11-30 09:54:00
4:54 AM,30.0,25.0,82,30.07,8.0,Calm,Calm,-,N/A,,Clear,0,2012-11-30 10:54:00
5:54 AM,34.0,27.0,75,30.09,8.0,NNW,5.8,-,N/A,,Clear,330,2012-11-30 11:54:00
6:54 AM,32.0,26.1,79,30.12,7.0,WNW,3.5,-,N/A,,Clear,290,2012-11-30 12:54:00
7:54 AM,25.0,21.0,85,30.13,5.0,Calm,Calm,-,N/A,,Clear,0,2012-11-30 13:54:00
8:54 AM,33.1,26.1,75,30.14,6.0,NNW,5.8,-,N/A,,Haze,330,2012-11-30 14:54:00
9:54 AM,36.0,26.1,67,30.14,6.0,NNE,8.1,-,N/A,,Haze,20,2012-11-30 15:54:00
10:54 AM,41.0,28.0,60,30.14,6.0,North,4.6,-,N/A,,Haze,360,2012-11-30 16:54:00
11:54 AM,45.0,28.9,53,30.12,6.0,Calm,Calm,-,N/A,,Haze,0,2012-11-30 17:54:00
12:54 PM,46.9,30.0,52,30.09,6.0,Variable,4.6,-,N/A,,Haze,0,2012-11-30 18:54:00
1:54 PM,48.0,30.9,52,30.06,5.0,Calm,Calm,-,N/A,,Haze,0,2012-11-30 19:54:00
2:54 PM,48.9,30.9,50,30.03,5.0,East,5.8,-,N/A,,Haze,80,2012-11-30 20:54:00
3:54 PM,48.0,30.9,52,30.05,5.0,ENE,4.6,-,N/A,,Haze,70,2012-11-30 21:54:00
4:54 PM,43.0,30.0,60,30.05,5.0,East,5.8,-,N/A,,Haze,80,2012-11-30 22:54:00
5:54 PM,39.9,30.0,68,30.04,6.0,ESE,4.6,-,N/A,,Haze,110,2012-11-30 23:54:00
6:54 PM,35.6,28.4,75,30.01,6.0,Calm,Calm,-,N/A,,Haze,0,2012-12-01 00:54:00
7:54 PM,32.0,26.1,79,30.04,6.0,Calm,Calm,-,N/A,,Haze,0,2012-12-01 01:54:00
8:54 PM,32.0,26.1,79,30.01,6.0,Calm,Calm,-,N/A,,Haze,0,2012-12-01 02:54:00
9:54 PM,27.0,23.0,85,30.01,5.0,Calm,Calm,-,N/A,,Clear,0,2012-12-01 03:54:00
10:54 PM,28.9,25.0,85,30.01,5.0,NNW,4.6,-,N/A,,Clear,340,2012-12-01 04:54:00
11:54 PM,28.4,24.8,86,29.96,5.0,Calm,Calm,-,N/A,,Clear,0,2012-12-01 05:54:00